Weather in Tverdysh

Russia / Kurgan Oblast     55°44′43″N   64°29′45″E
temp.,
°C
wind,
m/s
gust,
m/s
humid.,
%
clouds,
%
prec.,
mm/h
press.,
hPa
HPBL,
m
28 september, tue
tue2823:00+3ene7146499 0.0 10221095
02:00+5ene7125995 0.0 10211247
05:00+4ene61271100 0.0 10201147
08:00+4ene7137197 0.0 1020995
11:00+7ene81352100 0.0 10191451
14:00+8ene71145100 0.0 10181604
17:00+8ne61144100 0.0 10181727
20:00+5ne71259100 0.0 1019985
29 september, wed
wed2923:00+4ne5127668 0.0 1020673
02:00+3nne5127867 0.0 1020469
05:00+1nne4129134 0.0 1021346
08:00+2nne4128532 0.0 1022375
11:00+7nne585711 0.0 10221157
14:00+8nne5746100 0.1 10221853
17:00+8nne4748100 0.1 10231548
20:00+6nne3855100 0.1 1024703
30 september, thu
thu3023:00+5nne2663100 0.1 1024304
02:00+2n257745 0.0 102599
05:000nnw278668 0.0 1026157
08:00+2nnw367979 0.0 1026225
11:00+7nnw35556 0.0 1025948
14:00+9nw45405 0.0 10241504
17:00+9nw35395 0.0 10241305
20:00+4w22525 0.0 102427
1 october, fri
fri123:00+2wnw36615 0.0 1024107
02:00+1wnw37855 0.0 1024137
05:00+3w2879100 0.0 1023297
08:00+5wnw3783100 0.0 1023583
11:00+5wnw3794100 0.4 1023495
14:00+5nne3594100 0.2 1024752
17:00+6n268299 0.3 1026481
20:00+5n266455 0.1 1027163
2 october, sat
sat223:00+1ne22845 0.1 102929
02:00−1ene11885 0.0 103010
05:00−1sse00895 0.0 103110
08:000sw11825 0.0 103145
11:00+6wsw23576 0.0 1031639
14:00+9w344261 0.0 10301264
17:00+9w364758 0.0 1029691
20:00+4sw3665100 0.0 1030101